Home   Weather   Hollywood   Past weeks

Flag for USA Past Weather in Hollywood, Florida, USA — Yesterday and Last 2 Weeks

79 °F


Feels Like: 82 °F
Forecast: 77 / 81 °F
Wind: 14 mph from Northeast

Location: Fort Lauderdale / Hollywood International Airport

Current Time: Oct 28, 2016 at 7:51:40 PM

Latest Report: Oct 28, 2016 at 6:53 PM

Visibility: 10 mi

Pressure: 29.99 "Hg

Humidity: 72%

Dew Point: 69 °F

Location of HollywoodLocation

Past Weather in Hollywood — Graph


Hollywood Temperature Yesterday

Maximum temperature yesterday: 83 °F (at 12:53 PM)
Minimum temperature yesterday: 77 °F (at 12:53 AM)
Average temperature yesterday: 79 °F

High & Low Weather Summary for the Past Weeks

High86 °F (Oct 14, 1:53 PM)94% (Oct 16, 5:53 AM)30.17 "Hg (Oct 16, 5:53 AM)
Low64 °F (Oct 23, 6:53 AM)32% (Oct 22, 4:53 PM)29.77 "Hg (Oct 21, 3:53 PM)
Average78 °F67%29.99 "Hg
* Reported Oct 13 5:01 PM — Oct 28 5:53 PM, Hollywood, Weather by CustomWeather, © 2016

Note: Actual official high and low records may vary slightly from our data, if they occured in-between our weather recording intervals... More about our weather records


Hollywood Weather History for the Previous 24 Hours

Scroll right to see more
Time TempWeatherWind HumidityBarometerVisibility
5:53 PM
Fri, Oct 28
78 °FMostly cloudy.17 mph76%29.98 "Hg10 mi
4:53 PM78 °FCloudy.17 mph71%29.98 "Hg10 mi
3:53 PM79 °FCloudy.20 mph69%30.00 "Hg10 mi
2:53 PM81 °FMore clouds than sun.17 mph62%30.01 "Hg10 mi
1:53 PM81 °FMostly cloudy.20 mph62%30.02 "Hg10 mi
12:53 PM81 °FOvercast.17 mph62%30.04 "Hg10 mi
11:53 AM81 °FMostly cloudy.18 mph62%30.06 "Hg10 mi
10:53 AM80 °FMore clouds than sun.13 mph67%30.06 "Hg10 mi
9:53 AM79 °FMore clouds than sun.17 mph69%30.06 "Hg10 mi
8:53 AM79 °FOvercast.15 mph69%30.04 "Hg10 mi
7:53 AM79 °FMore clouds than sun.16 mph69%30.03 "Hg10 mi
6:53 AM79 °FPassing clouds.22 mph67%30.01 "Hg10 mi
5:53 AM78 °FPassing clouds.15 mph69%30.00 "Hg10 mi
4:53 AM78 °FPassing clouds.18 mph71%29.99 "Hg10 mi
3:53 AM78 °FPassing clouds.17 mph71%30.00 "Hg10 mi
2:53 AM78 °FPartly cloudy.20 mph71%30.01 "Hg10 mi
1:53 AM78 °FPartly cloudy.12 mph71%30.02 "Hg10 mi
12:53 AM78 °FPartly cloudy.17 mph71%30.03 "Hg10 mi
11:53 PM
Thu, Oct 27
78 °FPartly cloudy.14 mph69%30.05 "Hg10 mi
10:53 PM78 °FPartly cloudy.17 mph69%30.07 "Hg10 mi
9:53 PM78 °FOvercast.13 mph64%30.08 "Hg10 mi
8:53 PM79 °FMostly cloudy.14 mph60%30.08 "Hg10 mi
7:53 PM80 °FOvercast.21 mph56%30.07 "Hg10 mi
Weather by CustomWeather, © 2016

See weather overviewHow to use our weather pages